Wind_Speed
14 14 14 14 14 14 14 14 13 13 13 13 13 13 13 13 12 12 12 11 11 10 10 10 10 11 11 11 11 11 11 11 11 11 10 10 10 10 10 10 10 10 9 9 10 10 10 10 10 10 10 10 11 11 11 10 10 10 10 11 11 11 11 11 11 10 10 9 8
14 14 14 14 14 15 15 14 14 14 13 13 13 13 13 13 13 13 12 12 12 11 11 11 11 11 11 11 11 11 11 11 11 11 11 11 11 11 11 10 10 10 10 9 10 10 10 10 11 11 11 11 11 11 11 10 10 10 11 11 11 11 11 11 11 11 11 10 10
14 15 15 15 15 14 14 14 14 14 13 13 13 12 12 12 12 12 12 12 12 12 11 11 11 11 11 11 11 11 12 12 12 11 11 11 11 10 10 10 10 10 10 10 10 10 11 11 12 12 12 11 11 11 10 10 10 11 11 11 11 11 11 11 11 11 11 11 10
14 14 14 15 15 15 14 14 14 14 14 13 13 12 12 12 12 12 12 12 12 12 12 11 11 11 12 12 12 12 12 12 12 12 12 12 11 11 11 11 11 11 11 11 11 12 12 12 13 13 13 13 12 11 11 10 10 11 11 11 11 11 11 11 11 11 10 10 10
14 13 13 14 15 15 15 14 14 13 13 13 13 12 11 11 12 12 12 12 12 12 12 12 12 12 12 12 12 12 12 12 12 12 12 12 12 11 11 11 12 12 12 12 13 13 13 13 13 13 13 14 13 12 11 10 10 11 11 11 11 11 11 11 11 11 11 10 10
13 13 13 13 14 14 15 14 14 14 13 13 13 12 12 11 11 11 12 12 13 13 12 12 12 12 12 12 13 13 13 13 13 13 13 13 12 12 12 12 12 12 12 13 13 13 13 13 13 13 14 14 14 13 12 11 11 11 12 12 12 12 12 12 12 12 11 11 11
13 13 13 13 14 14 14 14 14 14 14 14 14 13 13 12 12 12 12 12 12 13 13 13 12 12 13 13 14 14 14 14 14 14 14 14 14 14 13 13 13 13 13 13 13 13 13 13 13 13 13 14 14 14 12 12 11 11 12 12 12 12 13 13 13 13 13 13 13
12 13 13 13 13 14 14 14 13 13 13 13 14 13 13 13 12 12 12 13 13 13 13 14 14 14 14 14 15 15 15 15 15 15 15 15 15 15 15 15 15 15 15 14 14 14 14 14 14 14 13 14 14 13 13 12 12 12 13 13 12 13 13 13 13 14 14 15 15
11 11 12 12 13 13 13 13 13 13 13 13 13 13 13 13 13 13 13 13 13 13 14 14 15 15 16 16 16 16 16 16 16 16 15 15 15 15 15 15 16 16 15 15 15 15 15 15 14 14 14 14 14 13 13 13 13 13 13 13 13 13 13 13 14 14 15 15 16
9 10 10 11 11 12 12 12 13 13 13 13 13 13 13 13 13 13 13 13 13 14 14 14 15 15 16 16 16 16 16 16 16 16 16 16 16 15 16 16 16 16 15 15 15 16 16 16 16 15 15 15 15 14 14 14 14 14 14 14 14 14 14 14 14 14 15 15 16
9 10 10 10 11 11 12 12 12 13 13 14 14 13 13 13 13 13 13 14 14 14 14 14 14 15 15 15 15 15 15 16 16 16 17 17 17 16 16 16 16 16 16 16 16 16 17 17 17 16 16 15 15 15 15 14 15 15 15 14 14 15 15 14 14 14 14 15 15
10 10 11 11 11 11 12 12 12 13 13 13 13 13 13 13 13 13 13 14 14 14 14 14 14 14 14 15 15 15 15 15 15 16 16 17 17 17 17 17 17 17 17 17 16 17 17 18 17 17 17 16 16 15 14 14 14 15 14 14 14 15 15 14 14 14 14 14 15
10 10 11 11 11 11 12 12 12 13 13 13 13 13 13 13 13 13 13 13 13 13 13 13 14 14 14 14 15 15 15 15 15 16 16 16 16 17 17 17 17 17 17 17 17 17 18 18 18 18 17 17 16 15 15 14 14 14 14 14 14 14 14 14 14 14 14 15 15
9 10 10 10 10 11 11 11 11 12 12 12 12 12 12 12 13 13 13 13 13 13 13 13 13 14 14 14 14 15 15 16 16 16 16 16 16 17 17 17 17 17 17 17 17 17 18 19 19 18 18 17 16 16 15 15 15 14 14 14 14 14 14 14 14 14 15 15 16
9 9 9 9 10 10 10 10 10 10 10 11 11 11 11 12 12 12 12 12 12 12 12 12 12 13 13 14 14 14 15 15 16 16 17 17 17 17 18 18 17 17 17 16 17 17 18 18 18 18 18 17 16 16 16 15 15 14 14 14 14 14 14 14 14 14 15 15 15
8 8 8 8 9 9 9 9 9 9 9 9 10 10 10 10 10 11 11 11 11 11 11 11 11 11 12 12 13 13 14 15 16 16 17 17 18 18 18 18 18 17 17 17 17 17 17 17 17 18 17 17 17 16 16 15 15 15 14 14 14 14 14 14 14 14 14 15 15
8 8 8 8 8 9 9 9 10 10 11 11 11 10 10 11 11 12 12 11 11 11 11 11 11 11 11 11 11 12 13 14 15 16 16 17 18 19 19 18 18 17 17 17 17 17 16 17 16 17 17 17 17 16 16 15 15 15 15 15 14 14 14 14 14 14 14 15 15
9 9 9 8 9 9 9 10 11 11 12 13 13 13 13 13 14 14 13 13 13 13 13 13 12 12 11 11 11 11 12 13 14 15 16 18 18 19 19 18 18 18 17 17 17 16 16 16 16 16 16 16 15 15 14 14 14 15 14 15 14 15 15 15 14 14 14 15 15
9 9 9 9 9 9 10 11 11 12 13 13 14 14 15 15 15 15 15 15 15 15 14 13 13 13 13 12 12 12 12 13 14 15 16 18 19 19 19 19 18 18 17 17 16 16 16 16 16 15 15 15 14 14 14 14 14 14 14 14 15 15 15 15 15 15 15 15 15
9 9 9 9 9 9 10 11 12 13 14 14 15 15 15 15 15 15 15 16 15 15 16 15 14 14 13 13 13 12 12 13 13 14 15 17 18 19 19 19 19 18 17 17 16 16 16 16 16 15 15 15 14 14 14 13 13 13 14 14 15 15 15 15 15 15 15 15 15
9 9 9 9 9 9 10 12 13 14 14 14 15 15 15 15 14 15 15 15 15 15 15 15 15 14 14 13 12 12 12 12 12 13 13 14 16 17 18 18 18 17 17 16 16 16 16 16 16 15 15 15 14 14 14 13 13 14 14 14 15 15 15 15 15 16 16 15 15
8 8 9 9 9 10 11 12 12 13 13 14 14 14 13 13 13 13 13 14 14 14 14 14 14 15 14 14 14 13 13 12 12 12 12 12 13 14 15 16 16 16 15 15 15 16 16 16 15 15 15 15 15 14 14 14 14 14 14 14 14 15 15 15 15 15 16 15 15
8 8 8 9 9 10 10 11 11 11 12 12 12 12 12 12 12 12 12 12 12 13 13 13 14 14 14 15 15 15 15 14 13 13 12 12 12 12 12 12 13 13 12 12 12 13 13 13 13 13 13 13 14 14 13 13 12 12 12 13 13 14 14 14 14 14 14 14 14
7 7 8 8 9 9 9 10 10 10 10 10 11 11 11 11 11 11 11 11 12 12 13 13 14 14 14 14 14 15 15 15 15 14 14 13 12 12 11 11 11 12 11 11 10 10 10 10 10 10 11 11 12 12 11 11 10 10 10 10 11 12 12 13 14 14 14 14 14
7 7 7 7 8 8 9 9 9 9 9 10 10 10 10 11 11 11 11 11 11 12 13 14 14 14 14 14 14 14 15 16 16 16 15 15 13 12 11 11 11 12 12 12 11 11 10 10 10 9 9 10 10 11 11 11 11 10 10 10 10 10 11 11 12 13 13 13 13
7 7 7 7 7 8 8 8 8 9 9 9 9 10 10 10 11 11 11 11 11 12 13 13 14 14 14 14 14 14 15 16 16 16 16 15 14 12 11 11 11 11 12 12 12 12 11 11 10 10 10 9 10 10 10 11 11 11 11 10 10 10 10 10 10 11 11 11 11
7 7 7 7 7 7 8 8 8 9 9 9 9 9 10 10 10 11 11 11 11 11 12 12 13 13 13 14 14 15 15 15 15 15 15 15 15 13 12 10 11 11 11 11 11 11 11 11 11 10 10 10 10 10 10 10 11 11 11 10 10 10 10 10 10 10 10 10 10
6 7 7 7 7 7 7 8 8 8 9 9 9 9 10 10 10 10 11 11 11 11 11 11 11 12 12 13 14 14 14 14 14 13 13 14 15 15 13 12 11 11 11 11 11 11 11 11 11 10 10 10 10 10 10 10 10 10 10 10 10 10 10 9 9 9 10 10 10
6 7 7 7 7 7 7 8 8 8 8 9 9 9 9 10 10 10 10 10 10 10 10 10 10 11 12 12 13 13 13 13 13 12 12 12 14 14 14 13 11 11 11 11 11 11 11 11 11 10 10 10 10 10 10 11 11 10 10 10 10 10 9 9 9 9 9 9 9
6 7 7 7 7 7 7 7 8 8 8 9 9 9 9 9 10 10 10 10 10 10 10 10 10 10 11 11 11 11 12 12 13 12 12 12 12 13 14 13 12 11 10 11 11 11 11 11 11 11 11 11 11 11 11 11 11 11 11 11 10 10 9 9 9 9 9 9 9
6 6 7 7 7 7 7 7 7 8 8 8 9 9 9 9 9 9 9 9 9 9 9 9 9 9 10 10 10 10 10 11 11 11 11 11 11 12 12 13 12 11 10 11 11 11 11 11 11 11 11 11 11 11 11 11 11 11 11 11 10 10 9 9 8 9 9 9 9
6 6 6 7 7 7 7 7 7 8 8 8 8 8 8 8 8 8 8 8 8 8 7 8 8 9 9 9 9 9 9 9 9 10 10 10 10 10 11 12 11 10 10 10 10 11 11 11 11 10 11 11 11 11 11 11 11 11 10 10 10 10 9 8 8 8 8 8 8
6 6 6 6 7 7 7 7 7 8 8 8 8 8 8 8 8 8 8 8 8 7 7 7 8 8 8 8 8 9 9 9 9 9 9 9 9 9 10 11 11 10 9 9 9 10 11 11 10 10 10 11 11 10 10 10 10 9 9 9 9 9 9 8 8 7 7 7 7
6 6 6 6 6 7 7 7 7 8 8 7 7 7 7 8 8 8 7 7 7 7 7 7 7 8 8 8 8 9 9 9 8 8 8 8 8 8 9 10 11 10 9 8 8 9 10 10 10 10 10 10 9 9 9 9 9 8 8 8 8 8 8 8 7 7 6 6 6
6 6 6 6 6 6 7 7 7 7 7 7 7 7 7 7 8 7 7 7 6 6 7 7 7 7 7 8 8 9 9 9 8 8 7 7 7 7 9 10 10 10 9 8 7 8 9 10 10 10 9 8 8 7 7 7 7 7 7 6 7 7 7 7 7 6 6 5 5
6 6 6 6 6 6 6 6 7 7 7 7 7 7 7 7 7 7 6 6 6 6 7 7 7 6 6 6 7 8 8 8 8 8 8 7 7 7 8 9 10 10 9 8 7 7 8 9 9 9 8 7 6 6 5 5 6 6 6 5 5 5 6 6 6 6 5 5 5
6 6 5 5 5 6 6 6 6 7 7 7 7 7 7 6 6 6 6 6 6 6 6 6 6 6 6 6 6 7 7 8 8 8 8 8 7 7 7 8 9 10 10 8 7 6 7 8 8 8 7 6 5 4 4 4 4 4 4 4 4 4 4 4 5 5 5 5 5
6 6 5 5 5 5 6 6 6 7 7 7 7 7 6 6 6 6 6 6 5 5 5 5 5 6 6 6 6 6 7 8 8 9 8 8 7 7 7 8 9 9 10 9 7 6 6 6 7 8 7 6 4 4 3 3 3 3 3 3 2 2 3 3 4 4 5 5 5
6 6 6 5 5 5 6 6 7 7 7 7 7 7 6 6 6 6 6 6 5 5 5 5 6 6 6 6 6 6 6 7 8 9 9 9 8 7 7 8 8 9 9 9 8 6 5 5 6 7 7 6 4 3 2 2 2 2 2 2 2 2 2 2 3 4 4 5 5
6 6 6 6 6 6 6 7 7 7 7 7 7 7 7 6 6 6 5 5 6 5 5 5 6 6 6 6 6 5 5 6 7 8 9 9 9 8 8 8 8 8 9 9 8 6 4 4 4 5 6 6 4 3 2 1 1 2 2 2 2 2 2 2 3 4 4 5 6
5 5 6 6 6 6 6 7 7 7 7 7 8 7 7 6 6 6 5 5 5 5 5 5 6 6 6 6 6 5 5 5 6 8 9 9 10 9 9 8 7 7 7 7 7 6 5 3 3 4 6 6 5 3 2 1 1 1 2 3 3 3 3 3 3 4 4 5 6
Wind_Direction
71 74 77 79 81 82 81 80 79 79 80 80 79 79 79 77 75 73 71 70 68 67 65 64 63 63 63 65 66 67 67 69 71 74 76 78 80 82 83 82 82 83 83 86 88 88 85 82 80 77 75 75 75 77 79 80 79 83 87 90 87 85 82 78 74 72 71 73 75
69 73 77 80 82 83 83 81 80 79 79 79 79 79 78 77 76 74 71 69 69 69 68 67 68 68 67 68 69 68 68 69 72 75 77 79 80 83 84 84 85 86 87 87 88 88 86 85 83 79 75 74 73 71 72 76 80 83 84 84 82 81 79 75 72 70 69 69 72
68 72 76 79 81 81 81 80 79 79 79 79 80 79 78 77 76 74 71 69 69 69 69 69 69 70 70 70 70 70 70 70 72 73 74 75 76 79 81 83 85 86 86 86 87 87 88 88 87 83 77 73 70 68 67 69 76 78 77 75 75 75 73 71 70 68 66 66 67
67 69 72 75 78 79 79 79 79 79 80 80 81 79 78 77 76 75 73 72 69 68 68 69 70 70 71 70 71 72 72 73 73 73 72 73 74 76 80 83 85 85 86 86 86 86 86 86 85 82 77 71 68 65 62 63 68 70 70 69 68 68 67 67 66 65 64 64 65
65 66 69 73 77 78 79 79 79 79 80 80 80 78 76 76 76 75 74 71 69 68 68 69 70 70 71 72 72 72 73 73 73 73 73 73 74 76 78 82 83 84 84 85 85 84 83 81 79 76 73 70 65 62 61 64 66 67 68 67 66 65 64 64 63 62 63 64 65
66 66 68 72 76 78 79 80 80 80 80 80 78 77 76 76 76 75 73 72 70 69 69 69 69 71 74 75 74 74 73 72 73 73 73 73 74 76 79 80 82 83 83 83 83 83 81 79 75 72 70 68 65 62 63 65 67 68 68 67 64 64 63 62 61 61 63 65 67
69 69 70 73 75 78 79 81 81 81 80 78 77 76 76 76 76 75 75 74 73 70 68 68 69 72 75 75 75 74 73 73 73 73 74 74 75 77 78 80 83 84 84 83 82 81 80 78 73 69 66 65 62 60 60 63 65 67 67 66 64 62 62 62 62 62 64 65 66
72 73 75 76 77 78 80 80 80 79 78 76 76 76 77 77 77 76 76 75 74 72 70 70 70 73 75 75 76 75 75 75 74 74 74 75 75 75 76 78 80 81 82 83 82 81 80 78 74 69 65 63 61 59 59 62 65 67 68 66 64 63 62 62 62 63 64 64 64
73 74 75 77 78 79 80 80 80 79 78 77 76 76 76 77 77 77 77 76 76 75 73 72 72 74 75 75 75 75 76 75 75 75 75 75 74 74 74 74 74 75 77 79 80 80 80 78 74 71 68 66 64 62 63 65 68 69 69 68 66 65 63 63 63 63 63 63 62
76 76 76 76 78 80 82 82 82 82 82 81 79 78 77 78 78 78 78 79 79 77 75 74 73 73 73 72 72 72 73 74 74 74 74 73 73 72 72 72 72 72 73 75 77 78 79 78 76 75 74 72 70 67 66 68 70 70 70 70 69 68 66 65 64 63 63 63 62
82 81 81 81 81 84 86 84 84 84 84 84 83 81 80 79 79 80 81 81 80 79 77 76 75 74 73 72 71 71 72 72 72 72 72 72 72 72 72 72 72 72 73 74 77 78 79 79 79 79 78 76 74 71 68 69 71 71 71 71 71 69 67 66 65 63 62 62 62
87 87 88 88 88 88 88 86 86 86 86 85 84 82 81 80 81 82 83 83 82 82 81 79 77 76 75 74 73 73 73 73 73 72 71 70 71 71 72 72 72 73 73 73 75 77 78 80 81 81 80 79 77 73 71 71 72 72 72 71 71 69 66 64 63 63 62 61 60
93 93 92 92 91 90 89 88 87 87 86 86 85 84 83 85 85 85 85 84 84 84 83 81 80 78 77 75 74 74 74 74 73 72 71 70 70 70 70 71 71 71 71 71 73 76 78 81 81 80 79 78 77 76 74 74 73 73 72 70 69 67 65 64 63 62 61 60 58
97 97 96 95 94 93 91 89 87 86 86 87 87 87 87 88 89 88 87 86 86 85 84 82 81 80 79 78 76 74 74 74 74 73 72 71 70 69 69 70 70 70 71 71 73 75 78 80 80 80 79 78 77 77 77 76 75 74 73 71 69 67 66 64 63 61 60 58 56
93 95 97 98 98 98 96 94 90 87 86 87 88 89 89 89 90 90 90 88 86 85 84 83 82 81 81 80 79 77 75 74 73 73 72 71 70 70 70 70 70 71 72 73 74 75 76 78 79 80 80 79 78 78 78 77 76 75 75 74 72 69 67 66 63 61 59 58 56
88 89 91 94 98 100 100 98 98 97 96 95 95 94 93 93 94 94 92 89 87 85 84 83 83 82 81 81 81 80 77 74 73 72 72 71 71 70 70 71 71 72 73 74 74 74 75 76 78 79 80 80 80 79 79 79 78 78 77 77 75 73 70 68 65 62 60 58 57
86 85 85 89 94 99 102 104 107 110 111 111 108 106 105 103 102 99 96 93 91 89 87 86 85 83 82 81 82 81 79 76 74 72 72 72 72 71 71 71 71 72 72 73 74 74 75 76 76 77 78 79 79 78 78 78 78 78 78 77 76 75 73 71 67 64 61 59 57
88 88 88 88 91 96 101 106 110 115 118 119 117 115 112 110 107 104 102 99 97 94 91 89 88 86 83 82 82 82 81 80 77 75 74 73 71 71 70 70 70 70 71 73 74 75 76 75 75 76 76 76 76 76 76 76 76 77 77 77 76 76 75 73 69 65 62 59 56
94 94 94 93 93 96 99 104 108 111 115 117 117 115 112 110 108 106 104 103 101 99 95 92 90 88 86 84 83 82 81 82 80 78 74 72 69 68 68 68 68 69 70 72 74 75 75 75 76 76 76 76 76 77 77 76 76 76 76 76 76 75 75 74 71 68 64 59 57
102 102 101 100 101 101 103 105 107 109 111 112 113 112 111 109 107 106 105 104 103 102 100 97 93 90 87 84 82 80 79 80 80 78 75 70 67 65 65 64 65 66 68 70 72 74 75 75 75 76 77 78 79 79 78 78 77 76 76 76 76 76 75 75 74 71 67 62 58
110 110 109 109 107 107 109 110 110 110 111 111 112 112 111 110 108 107 107 106 105 104 102 100 97 93 89 85 81 79 77 77 77 77 74 70 66 62 61 59 59 60 62 64 67 69 72 73 74 75 77 79 81 81 81 80 79 78 77 76 76 76 76 75 74 73 70 64 59
118 117 117 115 113 113 114 113 112 112 112 112 112 112 112 112 111 111 110 109 107 105 102 99 97 95 93 90 86 83 80 77 77 77 77 74 69 63 59 56 54 54 55 57 59 62 65 68 70 72 74 78 81 82 83 82 81 79 77 76 75 74 73 72 71 71 69 65 60
125 124 123 122 120 118 117 116 115 115 114 114 114 115 116 116 116 115 114 112 109 106 103 100 97 95 94 93 92 91 87 82 79 80 80 80 76 72 68 64 60 59 60 59 56 57 61 64 66 68 70 73 76 78 79 79 78 76 75 73 72 71 70 69 68 67 66 63 60
132 131 129 127 125 122 121 121 120 120 119 119 120 120 121 121 121 120 117 114 111 109 106 104 100 97 95 94 95 95 93 90 86 83 81 81 80 79 77 74 71 68 66 64 62 62 64 66 69 69 70 71 72 73 75 74 74 73 72 71 69 68 67 66 67 66 64 62 60
137 138 137 134 130 128 126 125 125 125 125 125 126 127 127 127 125 124 121 118 115 113 111 109 106 102 99 96 96 95 95 94 91 88 85 83 81 79 77 74 72 69 67 66 65 65 65 67 69 73 74 73 72 72 73 74 75 75 74 71 68 65 63 62 61 62 61 60 57
142 145 145 143 139 135 132 131 130 129 129 129 130 131 131 131 131 130 128 125 123 120 118 116 112 109 105 102 98 95 92 92 92 91 88 86 83 80 76 74 72 71 69 68 66 66 65 64 65 69 74 76 75 73 71 71 73 73 73 72 68 64 59 56 54 54 54 54 53
148 151 153 151 147 143 140 137 134 132 131 130 131 132 133 134 135 135 134 132 131 128 125 123 120 116 112 108 103 98 93 90 88 87 87 87 86 83 79 75 74 73 71 70 68 67 67 64 62 63 67 74 76 75 72 69 69 69 70 68 66 63 58 53 50 48 47 46 46
152 156 159 158 155 151 147 142 139 136 134 133 132 133 134 135 135 135 136 135 134 133 131 128 126 122 118 114 109 105 100 95 89 84 82 83 86 85 83 80 77 74 72 70 69 68 66 65 62 59 61 68 72 74 72 70 67 65 64 62 61 58 56 52 48 45 42 41 39
157 161 163 163 160 157 152 147 144 141 138 136 135 134 133 133 133 133 133 134 134 133 132 132 131 129 124 120 116 112 108 102 96 89 83 80 81 83 84 82 79 76 72 69 67 67 65 63 61 57 57 63 69 70 69 68 66 64 61 58 57 55 53 51 47 44 41 38 35
162 165 167 166 164 160 156 151 147 143 140 138 137 135 134 133 131 130 130 130 130 131 132 136 137 135 132 128 125 119 113 108 103 98 92 86 80 79 79 80 79 76 72 68 65 64 63 61 57 54 55 61 67 69 69 67 66 64 61 58 55 53 52 50 48 44 41 37 35
163 167 168 168 166 161 156 152 148 145 142 140 138 138 136 133 130 127 126 123 123 124 129 137 142 142 141 140 136 129 122 115 111 106 99 90 80 76 75 75 76 75 73 69 64 61 59 58 55 52 54 61 67 70 69 69 67 65 61 58 54 51 50 48 46 43 40 38 34
162 166 167 167 165 160 156 152 149 146 143 142 142 140 137 131 127 123 119 115 113 116 123 134 141 145 146 148 146 142 136 128 120 112 103 92 82 77 75 73 71 72 72 69 63 60 58 57 54 52 55 62 67 70 70 70 69 65 61 57 53 51 49 47 44 42 39 37 33
159 163 166 166 162 157 154 151 149 147 146 145 144 140 134 127 122 117 112 110 110 114 120 129 137 141 145 147 149 149 148 142 132 121 109 97 88 82 78 73 69 69 70 70 63 60 58 55 52 50 54 61 65 67 68 70 69 65 60 54 50 48 47 46 44 42 38 32 26
157 160 163 162 159 155 153 151 150 150 150 149 145 140 132 125 119 114 111 110 110 113 117 123 129 137 144 150 152 154 155 152 145 133 120 107 96 87 79 72 67 66 70 74 66 59 55 52 48 49 53 61 64 65 64 65 66 64 59 53 49 45 42 41 39 36 31 22 16
155 158 160 159 157 154 153 152 153 154 155 153 148 141 135 128 122 117 112 109 106 105 106 109 116 126 137 147 153 157 157 157 153 146 135 123 107 92 81 73 67 67 71 77 69 60 54 49 46 47 52 59 63 63 62 62 62 61 58 51 46 41 37 34 30 27 21 13 4
155 158 159 158 155 154 154 155 157 158 158 156 151 145 141 135 128 122 115 110 103 98 97 98 104 112 122 132 144 153 157 156 155 153 149 140 123 103 86 77 72 70 72 77 77 67 55 48 44 46 50 57 61 61 60 58 56 54 50 45 39 33 29 27 23 20 14 6 357
154 156 158 158 156 155 156 159 160 161 160 158 155 152 147 142 135 128 121 116 109 103 98 99 104 110 117 123 133 144 154 156 156 155 155 151 138 118 99 87 79 74 72 72 78 72 61 53 46 46 49 53 57 58 55 52 50 44 38 32 25 19 17 14 13 10 7 2 356
154 155 157 159 158 159 159 162 163 164 163 162 159 156 151 146 139 134 128 124 118 112 109 108 110 113 116 120 127 137 148 155 156 156 156 155 145 128 110 98 87 80 74 71 73 72 65 56 46 43 45 48 51 54 52 46 41 32 23 10 358 352 354 356 358 359 360 1 1
155 156 158 162 164 164 163 165 167 167 167 164 160 157 153 149 144 139 135 130 126 121 119 120 119 117 116 118 121 126 138 151 156 158 158 157 150 136 120 109 95 86 80 73 70 68 63 50 40 39 40 42 43 46 49 42 29 15 359 345 329 320 322 333 342 348 352 357 6
159 158 160 165 167 169 170 171 172 172 169 165 161 157 155 152 150 145 141 137 135 131 130 130 128 124 121 120 118 117 124 141 156 162 163 163 159 147 132 117 101 92 85 78 68 60 51 38 32 32 34 37 36 37 39 30 358 345 339 335 324 314 311 319 333 340 347 353 1
163 163 164 167 169 172 175 177 177 175 170 166 164 162 160 159 156 152 148 145 143 141 139 139 137 134 129 124 121 116 118 129 150 163 168 168 165 157 144 127 108 94 86 80 68 59 49 35 24 26 28 30 32 31 21 357 328 325 330 332 329 326 321 322 328 335 343 349 353
Height
806 805 805 805 805 805 805 805 805 805 805 805 806 806 806 806 806 807 807 807 807 807 807 807 807 807 807 807 807 806 806 806 805 805 805 804 804 804 804 804 803 803 803 803 803 803 803 803 803 803 803 803 803 803 803 803 803 803 803 803 803 803 803 803 803 803 803 803 803
807 807 806 806 806 806 806 806 806 806 806 806 806 807 807 807 807 807 807 808 808 808 808 808 808 808 808 807 807 807 807 806 806 806 805 805 805 804 804 804 804 804 804 803 803 803 803 803 803 803 803 803 803 803 803 803 803 803 803 803 803 803 803 803 803 803 803 803 803
808 808 808 807 807 807 807 807 807 807 807 807 807 808 808 808 808 808 808 808 808 808 808 808 808 808 808 808 808 807 807 807 807 806 806 806 805 805 805 805 805 804 804 804 804 804 804 803 803 803 804 804 804 804 804 804 804 804 804 803 804 804 804 804 804 804 804 804 804
809 809 809 808 808 808 808 808 808 808 808 808 808 808 808 808 808 808 809 809 809 809 809 809 809 808 808 808 808 808 808 807 807 807 807 806 806 806 806 805 805 805 805 805 804 804 804 804 804 804 804 804 804 805 805 805 805 804 804 804 804 804 804 804 804 804 805 805 805
811 810 810 810 809 809 809 809 809 809 809 809 809 809 809 809 809 809 809 809 809 810 810 809 809 809 809 809 809 808 808 808 808 808 807 807 807 807 807 806 806 806 805 805 805 805 805 805 805 805 805 805 805 805 806 806 806 805 805 805 805 805 805 805 805 805 805 805 806
812 812 811 811 810 810 810 810 810 810 810 810 810 810 810 810 810 810 810 810 810 810 810 810 810 810 810 809 809 809 809 808 808 808 808 808 808 808 807 807 807 806 806 806 806 806 806 806 806 806 806 806 806 806 807 807 807 806 806 806 806 806 806 806 806 806 806 806 806
813 813 812 812 812 811 811 811 811 811 811 811 811 811 811 811 811 811 811 811 811 811 811 811 811 811 810 810 810 810 809 809 809 809 809 809 809 808 808 808 807 807 807 807 807 807 806 806 807 807 807 807 807 808 808 808 808 808 807 807 807 807 807 807 807 807 807 807 807
814 814 813 813 813 812 812 812 812 812 812 812 812 812 812 812 812 812 812 812 812 812 812 812 812 811 811 811 810 810 810 810 810 810 810 810 810 809 809 809 808 808 808 808 807 807 807 807 807 808 808 808 808 808 809 808 808 808 808 808 808 808 808 808 808 808 808 808 808
815 815 814 814 814 813 813 813 813 813 813 813 813 813 813 813 813 813 813 813 813 813 813 813 813 813 812 812 812 811 811 811 811 811 811 811 811 810 810 810 809 809 808 808 808 808 808 808 808 808 809 809 809 810 810 809 809 809 809 809 809 809 809 809 809 809 809 809 809
816 816 815 815 815 814 814 814 814 813 813 813 813 814 814 813 813 813 813 813 814 814 814 814 814 814 813 813 813 813 813 813 812 812 812 812 812 811 811 810 810 810 810 809 809 809 808 808 809 809 809 810 810 810 810 810 810 810 810 810 810 810 810 810 810 810 810 810 810
817 816 816 816 816 815 815 815 815 814 814 814 814 814 814 814 814 814 814 815 815 815 815 815 815 815 815 814 814 814 814 814 813 813 813 813 812 812 812 811 811 811 811 810 810 810 810 810 810 810 810 810 811 811 811 811 811 811 811 811 811 811 811 811 811 811 811 811 811
818 817 817 816 816 816 816 816 816 815 815 815 815 815 815 815 815 816 816 816 816 816 816 816 816 816 816 816 816 816 815 815 815 814 814 813 813 813 813 812 812 812 811 811 811 811 811 811 811 811 811 811 812 812 812 813 812 812 812 813 812 812 812 812 812 813 813 812 812
818 818 818 817 817 817 817 817 817 817 816 816 816 816 816 817 817 817 817 817 817 817 817 817 817 817 817 817 817 817 817 816 816 815 815 815 814 814 813 813 813 813 813 813 812 812 812 812 812 812 812 812 813 813 813 813 813 813 813 813 813 813 813 813 813 813 813 813 813
819 818 818 818 818 818 818 818 818 818 818 817 817 817 817 818 818 818 818 818 818 818 818 818 818 818 818 818 818 818 818 817 817 816 816 815 815 815 814 814 814 813 813 813 813 813 813 813 813 813 813 813 813 814 814 814 814 814 814 814 814 814 814 814 814 814 814 813 813
820 819 819 819 819 819 819 819 818 818 818 818 818 818 818 818 818 818 818 818 819 819 819 819 819 819 819 819 819 819 819 818 818 817 817 816 816 815 815 815 815 815 815 815 814 814 814 814 814 814 814 814 815 815 815 815 815 815 815 816 815 815 815 815 815 815 815 814 814
821 820 820 820 820 820 819 819 819 819 819 819 819 819 819 819 819 819 819 819 819 819 820 820 820 820 820 820 820 820 820 819 819 818 817 817 817 816 816 816 816 816 816 816 816 816 815 815 815 815 815 815 816 816 816 816 816 816 816 816 816 816 816 816 816 816 816 815 815
821 821 821 821 821 820 820 820 820 820 819 819 819 819 819 819 819 819 819 820 820 820 820 820 820 821 821 821 821 821 820 820 819 819 818 818 817 817 817 817 817 817 817 817 817 817 817 816 816 816 816 817 817 817 817 817 817 817 817 817 817 817 817 817 817 817 816 816 816
822 822 822 822 822 821 821 821 820 820 820 820 820 820 819 819 819 819 820 820 820 820 820 821 821 821 821 821 821 821 821 820 820 820 819 818 818 818 818 818 818 818 818 818 818 818 818 818 818 817 818 818 818 818 818 818 818 818 818 818 818 818 818 817 817 817 817 817 817
823 822 822 822 822 822 822 821 821 821 820 820 820 820 820 820 820 820 820 820 821 821 821 822 822 822 822 822 822 822 821 821 821 820 820 819 819 819 819 819 819 819 819 819 819 819 819 818 818 818 818 818 819 819 819 819 819 819 819 819 818 818 818 818 818 818 818 817 817
823 823 823 823 823 823 822 822 822 821 821 821 821 820 820 820 821 821 821 821 822 822 822 822 822 823 823 822 822 822 822 821 821 821 820 820 820 820 820 820 820 820 820 820 820 820 820 819 819 819 819 819 820 820 820 820 820 820 820 819 819 819 819 818 818 818 818 818 818
823 823 823 823 823 823 823 822 822 822 822 821 821 821 821 821 822 822 822 823 823 823 823 823 823 823 823 823 823 822 822 822 822 822 821 821 821 821 821 821 821 821 821 821 821 821 820 820 820 820 820 820 820 821 821 821 821 821 820 820 820 820 819 819 819 819 818 818 818
823 823 823 823 823 823 823 823 823 822 822 822 822 822 822 822 823 823 823 823 823 823 823 823 823 823 823 823 823 823 823 823 823 823 823 823 822 822 822 822 822 822 822 822 822 821 821 821 821 821 821 821 821 821 821 821 821 821 821 821 821 820 820 820 820 819 819 819 819
823 823 823 823 823 823 823 823 823 823 823 823 823 823 823 823 823 824 824 824 824 824 824 824 824 824 824 824 824 823 823 823 823 823 823 823 824 824 824 824 824 824 824 823 823 823 822 822 822 822 822 822 822 822 822 822 822 822 822 822 822 821 821 821 821 820 820 820 820
824 824 824 824 824 824 824 824 823 823 823 823 824 824 824 824 824 824 825 825 825 825 825 825 825 825 825 825 825 825 825 824 824 824 824 824 825 825 825 825 825 825 825 825 824 824 823 823 823 823 823 823 823 823 823 823 823 823 823 823 823 822 822 822 821 821 821 821 821
824 824 824 824 824 824 824 824 824 824 824 824 824 824 825 825 825 825 825 825 826 826 826 826 826 826 826 826 826 826 826 825 825 825 825 825 825 826 826 826 826 826 826 826 825 825 824 824 824 824 824 824 823 823 823 823 823 823 823 823 823 823 823 823 822 822 822 822 822
824 824 825 825 825 825 825 825 825 825 825 825 825 825 825 825 826 826 826 826 826 826 826 826 827 827 827 827 827 827 827 826 826 826 826 826 826 826 826 827 827 827 827 827 826 826 825 825 824 824 824 824 824 824 824 823 823 823 823 823 823 823 823 823 823 823 823 823 823
825 825 825 825 825 825 825 825 825 825 825 825 826 826 826 826 826 826 826 827 827 827 827 827 827 827 827 827 827 827 827 827 827 827 827 827 827 827 827 827 828 828 828 827 827 826 826 825 825 824 824 824 824 824 824 824 823 823 823 823 823 823 823 823 824 823 823 823 823
825 825 826 826 826 826 826 826 826 826 826 826 826 826 826 826 827 827 827 827 827 827 827 828 828 828 828 828 828 828 828 828 828 828 828 828 828 827 827 828 828 828 828 828 827 827 826 826 825 825 824 824 824 824 824 824 824 824 824 824 824 824 824 824 824 824 824 824 823
825 826 826 826 826 826 826 826 826 826 826 826 827 827 827 827 827 827 827 827 827 828 828 828 828 828 828 828 828 828 828 828 828 829 829 828 828 828 828 828 828 828 828 828 828 827 827 826 826 825 824 824 824 824 824 824 824 824 824 824 824 824 824 824 824 824 824 824 824
825 826 826 826 826 826 826 826 826 826 827 827 827 827 827 827 827 827 827 827 828 828 828 828 828 828 828 829 829 829 829 829 829 829 829 829 829 829 828 828 829 829 829 828 828 827 827 826 826 825 825 824 824 824 824 824 824 824 825 825 825 825 825 825 825 825 825 825 825
826 826 826 826 826 826 826 826 826 827 827 827 827 827 827 827 827 828 828 828 828 828 828 828 828 828 829 829 829 829 829 829 829 829 829 829 829 829 829 829 829 829 829 829 828 828 827 827 826 826 825 825 825 825 825 825 825 825 825 825 826 826 826 826 826 826 826 826 826
825 826 826 826 826 826 826 826 827 827 827 827 827 827 827 827 827 828 828 828 828 828 828 828 828 828 829 829 829 829 829 829 830 830 830 829 830 830 829 829 829 829 829 829 828 828 828 827 827 826 826 825 825 825 826 826 826 826 826 826 826 826 826 826 826 826 826 826 826
825 825 826 826 826 826 826 826 826 827 827 827 827 827 827 827 828 828 828 828 828 828 828 828 828 828 828 829 829 829 829 829 830 830 830 830 830 830 830 829 829 829 829 829 829 828 828 828 827 827 827 826 826 826 826 826 827 827 827 827 827 827 827 827 827 827 827 827 827
825 825 825 826 826 826 826 826 826 827 827 827 827 827 827 827 828 828 828 828 828 828 828 828 828 828 828 828 829 829 829 829 830 830 830 830 830 830 830 830 829 829 830 829 829 828 828 828 828 828 827 827 827 827 828 828 828 828 828 828 828 828 828 828 827 827 827 827 827
825 825 825 825 825 826 826 826 826 827 827 827 827 827 827 828 828 828 828 828 828 828 828 828 828 828 828 828 828 829 829 829 829 830 830 830 830 830 830 830 830 830 830 829 829 829 829 829 828 828 828 828 828 828 828 828 828 828 828 829 829 828 828 828 828 828 828 828 828
824 824 825 825 825 825 826 826 826 826 827 827 827 827 827 828 828 828 828 828 828 828 828 828 828 828 828 828 828 828 829 829 829 830 830 830 830 830 830 830 830 830 830 830 830 830 829 829 829 829 829 829 829 829 829 829 829 829 829 829 829 829 829 829 828 828 828 828 828
824 824 824 825 825 825 825 826 826 826 827 827 827 827 827 827 828 828 828 828 828 828 828 828 828 828 828 828 828 828 828 829 829 830 830 830 831 831 831 831 831 830 830 830 830 830 830 830 830 830 830 830 830 830 830 830 830 830 830 830 830 829 829 829 829 829 828 828 828
823 824 824 824 825 825 825 826 826 826 826 827 827 827 827 827 828 828 828 828 828 828 828 828 828 828 828 828 828 828 828 829 829 829 830 830 831 831 831 831 831 831 831 831 831 831 831 831 831 831 831 831 830 830 830 830 830 830 830 830 830 830 830 829 829 829 828 828 827
823 823 824 824 824 825 825 826 826 826 826 826 827 827 827 827 827 828 828 828 828 828 828 828 828 828 828 828 828 828 828 829 829 829 830 830 831 831 831 831 831 831 831 831 831 831 831 831 831 831 831 831 831 831 831 831 831 831 831 830 830 830 830 829 829 829 828 828 827
823 823 823 824 824 825 825 825 826 826 826 826 826 827 827 827 827 827 828 828 828 828 828 828 828 828 829 829 829 829 829 829 829 829 830 830 830 831 831 831 832 832 831 831 832 832 832 831 831 831 831 831 831 831 831 831 831 831 831 831 830 830 830 829 829 828 828 828 827
823 823 823 824 824 824 825 825 825 825 826 826 826 826 827 827 827 827 828 828 828 828 828 829 829 829 829 829 829 829 829 829 829 829 830 830 830 831 831 831 832 832 832 832 832 832 832 832 832 831 831 832 832 832 831 831 831 831 831 830 830 830 829 829 829 828 828 827 827